sat.trackr.live / text

‹ back to catalog

STARLINK-35972

NORAD 66638 · 2025-271X

PAYLOAD ACTIVE UNKNOWN

§ Identity

Operator
Country
US
Launch date
2025-11-23
Launch site
AFWTR
Launch vehicle
Mass (kg)
RCS (m²)

Purposes: comms

External: N2YO · Heavens-Above · Gunter

§ Orbital elements

Epoch: 2026-09-20T10:17:52.724544Z

Period
93.85 min
Inclination
53.1584°
Eccentricity
0.0002439
Mean motion
15.34400021 rev/d
Perigee alt
461.0 km
Apogee alt
464.4 km
Semi-major
6,840.8 km
B*
2.7462e-4
RAAN
313.8686°
Arg perigee
97.1827°
Mean anomaly
262.9453°
Rev number
4,740

§ Raw data

STARLINK-359721 66638U 25271X   26263.42908246  .00008913  00000+0  27462-3 0  99942 66638  53.1584 313.8686 0002439  97.1827 262.9453 15.34400021 47400

JSON: /api/v1/satellites/66638 · /tle

For live sub-satellite position, see the globe view (requires WebGL).

§ Visibility from observer

Set your observer location to see the next 7 days of passes ≥ 10°. The values pass through the URL so the page stays shareable.

No JS? Fill the form by hand. The geolocation button needs JavaScript.